Tucson, AZ

4:25 AM MST on June 23, 2017 (GMT -0700)
Tucson International

Weather History for KTUS - August, 2014

Change the Weather History Date:

Monday, August 18, 2014

  Actual Average Record
Temperature  
Mean Temperature 84 °F 85 °F  
Max Temperature 94 °F 97 °F 107 °F (2013)
Min Temperature 73 °F 73 °F 61 °F (1918)
Degree Days  
Heating Degree Days 0 0  
Month to date heating degree days 0 0  
Since 1 June heating degree days 0 0  
Since 1 July heating degree days 0 0  
Cooling Degree Days 19 20  
Month to date cooling degree days 382 366  
Year to date cooling degree days 2440 2145  
Since 1 June cooling degree days 1837 1643  
Growing Degree Days 33 (Base 50)    
Moisture  
Dew Point 62 °F    
Average Humidity 53    
Maximum Humidity 73    
Minimum Humidity 32    
Precipitation  
Precipitation T in 0.07 in 1.03 in (1936)
Month to date precipitation 1.75 1.46  
Year to date precipitation 3.79 6.98  
Sea Level Pressure  
Sea Level Pressure 29.88 in    
Wind  
Wind Speed 7 mph (South)    
Max Wind Speed 21 mph    
Max Gust Speed 25 mph    
Visibility 10 miles    
Events Rain , Thunderstorm    
T = Trace of Precipitation, MM = Missing Value Source: NWS Daily Summary

Daily Weather History Graph

Daily Weather History Graph

Search for Another Location

Airport or City:

Trip Planner

Search our weather history database for the weather conditions in past years. The results will help you decide how hot, cold, wet, or windy it might be!

Date:

Astronomy

Aug. 18, 2014 Rise Set
Actual Time 5:50 AM MST 7:04 PM MST
Civil Twilight 5:24 AM MST 7:30 PM MST
Nautical Twilight 4:54 AM MST 8:00 PM MST
Astronomical Twilight 4:22 AM MST 8:32 PM MST
Moon 12:04 AM MST (8/18) 2:05 PM MST (8/18)
Length of Visible Light 14h 05m
Length of Day
13h 14m
Last Quarter, 37% of the Moon is Illuminated
Aug 18
Last Quarter
Aug 25
New
Sep 2
First Quarter
Sep 8
Full
Sep 15
Last Quarter

Hourly Weather History & Observations

Time (MST) Temp. Heat Index Dew Point Humidity Pressure Visibility Wind Dir Wind Speed Gust Speed Precip Events Conditions
12:53 AM 75.9 °F - 62.1 °F 62% 29.87 in 10.0 mi SW 8.1 mph - N/A   Clear
1:53 AM 75.9 °F - 63.0 °F 64% 29.86 in 10.0 mi WNW 5.8 mph - N/A   Clear
2:53 AM 75.0 °F - 63.0 °F 66% 29.86 in 10.0 mi SW 3.5 mph - N/A   Clear
3:53 AM 75.9 °F - 63.0 °F 64% 29.85 in 10.0 mi Calm Calm - N/A   Partly Cloudy
4:53 AM 75.9 °F - 63.0 °F 64% 29.84 in 10.0 mi NE 4.6 mph - N/A   Mostly Cloudy
5:53 AM 75.0 °F - 64.0 °F 69% 29.86 in 10.0 mi SW 8.1 mph - N/A   Mostly Cloudy
6:53 AM 73.9 °F - 64.9 °F 73% 29.89 in 10.0 mi SE 5.8 mph - N/A   Mostly Cloudy
7:53 AM 75.9 °F - 64.0 °F 67% 29.92 in 10.0 mi South 4.6 mph - N/A   Clear
8:53 AM 79.0 °F - 63.0 °F 58% 29.92 in 10.0 mi SE 5.8 mph - N/A   Clear
9:53 AM 82.0 °F 82.7 °F 61.0 °F 49% 29.91 in 10.0 mi ESE 8.1 mph - N/A   Clear
10:53 AM 86.0 °F 85.7 °F 60.1 °F 41% 29.88 in 10.0 mi Variable 5.8 mph - N/A   Clear
11:53 AM 87.1 °F 86.1 °F 57.9 °F 37% 29.86 in 10.0 mi Calm Calm - N/A   Partly Cloudy
12:53 PM 90.0 °F 88.8 °F 57.9 °F 34% 29.83 in 10.0 mi Variable 4.6 mph - N/A   Clear
1:53 PM 93.0 °F 92.3 °F 59.0 °F 32% 29.80 in 10.0 mi Variable 5.8 mph - N/A   Clear
2:53 PM 93.0 °F 92.3 °F 59.0 °F 32% 29.78 in 10.0 mi WNW 8.1 mph - N/A   Clear
3:15 PM 91.9 °F 91.8 °F 61.0 °F 35% 29.91 in 10.0 mi West 11.5 mph - N/A Thunderstorm Partly Cloudy
3:35 PM 91.9 °F 91.5 °F 60.1 °F 34% 29.92 in 10.0 mi WSW 13.8 mph - N/A Thunderstorm Thunderstorm
3:53 PM 86.0 °F 87.6 °F 64.9 °F 49% 29.78 in 10.0 mi SSW 16.1 mph 23.0 mph N/A Thunderstorm Scattered Clouds
4:02 PM 84.2 °F 85.0 °F 62.6 °F 48% 29.92 in 10.0 mi SSW 12.7 mph 24.2 mph N/A Thunderstorm Partly Cloudy
4:11 PM 84.9 °F 86.1 °F 64.0 °F 49% 29.91 in 10.0 mi SW 12.7 mph - N/A   Partly Cloudy
4:53 PM 91.0 °F 91.5 °F 62.1 °F 38% 29.76 in 10.0 mi WSW 9.2 mph - N/A   Clear
5:53 PM 89.1 °F 90.0 °F 63.0 °F 42% 29.78 in 10.0 mi West 11.5 mph - N/A   Clear
6:20 PM 90.0 °F 90.6 °F 63.0 °F 40% 29.92 in 10.0 mi West 12.7 mph - N/A Thunderstorm Thunderstorm
6:53 PM 82.9 °F 83.3 °F 61.0 °F 47% 29.81 in 10.0 mi SSE 16.1 mph - N/A Thunderstorm Thunderstorm
7:00 PM 82.9 °F 84.4 °F 64.0 °F 53% 29.94 in 10.0 mi SSE 11.5 mph - 0.00 in Rain , Thunderstorm Light Thunderstorms and Rain
7:14 PM 82.9 °F 84.6 °F 64.9 °F 54% 29.94 in 10.0 mi SSE 8.1 mph - 0.00 in Rain Light Rain
7:53 PM 84.0 °F 85.4 °F 64.0 °F 51% 29.82 in 10.0 mi South 4.6 mph - 0.00 in   Overcast
8:15 PM 82.0 °F 83.4 °F 64.0 °F 54% 29.97 in 10.0 mi Variable 3.5 mph - N/A Thunderstorm Overcast
8:35 PM 82.9 °F 84.4 °F 64.0 °F 53% 29.98 in 10.0 mi Calm Calm - N/A   Overcast
9:21 PM 81.0 °F 81.9 °F 62.1 °F 52% 30.00 in 10.0 mi ENE 10.4 mph 20.7 mph N/A Thunderstorm Thunderstorm
9:39 PM 79.0 °F - 62.1 °F 56% 30.01 in 10.0 mi East 11.5 mph - N/A   Overcast
9:49 PM 78.8 °F - 62.6 °F 57% 30.01 in 10.0 mi East 12.7 mph - N/A Thunderstorm Overcast
9:53 PM 77.0 °F - 62.1 °F 60% 29.88 in 10.0 mi East 16.1 mph - N/A Thunderstorm Mostly Cloudy
10:35 PM 77.0 °F - 63.0 °F 62% 30.00 in 10.0 mi East 10.4 mph - N/A   Scattered Clouds
10:53 PM 78.1 °F - 61.0 °F 56% 29.87 in 10.0 mi East 9.2 mph - N/A   Clear
11:53 PM 75.9 °F - 64.9 °F 69% 29.87 in 10.0 mi ENE 3.5 mph - N/A   Partly Cloudy